FW2780 Weather Reports


Display with metric or nautical units.
time (UTC)temp
F
wind
direction
speed
MPH
gust
MPH
rain 1hr
in
rain 24hr
in
rain mn
in
humidity
%
barometer
mb
20260505061519 45 192 11.0 31.0 0.00 0.09 0.00 79 1006.5
20260505060022 46 274 16.0 35.0 0.00 0.09 0.00 78 1006.3
20260505054512 46 279 19.0 33.0 0.00 0.09 0.00 78 1005.8
20260505053017 47 230 12.0 38.0 0.00 0.09 0.00 77 1005.8
20260505051508 47 293 13.0 32.0 0.00 0.09 0.00 76 1005.7
20260505041610 48 243 20.0 40.0 0.00 0.09 0.00 75 1005.2
20260505040100 47 238 13.0 30.0 0.00 0.09 0.00 76 1004.8
20260505034551 48 270 15.0 28.0 0.00 0.09 0.00 76 1004.8
20260505033050 48 201 11.0 32.0 0.00 0.09 0.00 75 1004.5
20260505031548 48 237 12.0 28.0 0.00 0.09 0.00 74 1004.2
20260505030043 49 236 11.0 26.0 0.00 0.09 0.00 72 1004.1
20260505024539 49 287 12.0 27.0 0.00 0.09 0.02 70 1003.9
20260505023044 49 221 8.0 26.0 0.00 0.09 0.02 69 1003.6
20260505021541 50 190 11.0 35.0 0.00 0.09 0.02 66 1003.5
20260505020037 50 248 12.0 27.0 0.00 0.09 0.02 64 1003.2
20260505014549 50 230 10.0 22.0 0.00 0.11 0.02 63 1003.0
20260505013039 51 255 9.0 27.0 0.00 0.11 0.02 61 1003.0
20260505011534 51 259 9.0 23.0 0.00 0.11 0.02 62 1002.9
20260505010033 51 302 15.0 33.0 0.00 0.11 0.02 59 1002.7
20260505004537 50 247 10.0 22.0 0.00 0.17 0.02 58 1002.3
20260505003030 51 272 11.0 30.0 0.00 0.17 0.02 57 1002.3
20260505001530 50 60 10.0 24.0 0.00 0.17 0.02 58 1002.3
20260505000033 49 233 10.0 24.0 0.00 0.17 0.02 57 1002.1
20260504234526 49 233 7.0 21.0 0.00 0.27 0.02 55 1001.8
20260504233025 49 256 6.0 19.0 0.00 0.27 0.02 56 1001.6
20260504231525 49 237 4.0 16.0 0.00 0.27 0.02 57 1001.6
20260504230022 49 60 8.0 23.0 0.00 0.27 0.02 58 1001.5
20260504224521 49 249 8.0 23.0 0.00 0.36 0.02 58 1001.4
20260504223021 49 272 7.0 24.0 0.00 0.36 0.02 58 1001.4
20260504221521 50 235 11.0 28.0 0.00 0.36 0.02 56 1001.0
20260504220017 51 273 10.0 34.0 0.00 0.36 0.02 56 1001.1
20260504214515 50 258 10.0 33.0 0.00 0.44 0.02 60 1000.8
20260504213035 50 223 14.0 30.0 0.00 0.44 0.02 58 1000.6
20260504211516 50 302 15.0 32.0 0.00 0.44 0.02 59 1000.4
20260504210012 50 224 16.0 38.0 0.00 0.44 0.02 58 1000.2
20260504204508 49 272 19.0 37.0 0.00 0.44 0.02 61 1000.2
20260504203009 49 300 18.0 38.0 0.00 0.44 0.02 60 999.7
20260504201505 48 265 19.0 49.0 0.00 0.44 0.02 63 999.6
20260504200101 48 95 24.0 46.0 0.00 0.44 0.02 64 999.1
20260504194606 47 335 15.0 42.0 0.00 0.44 0.02 70 998.9
20260504193108 46 308 20.0 41.0 0.00 0.44 0.02 71 998.6
20260504191552 45 313 15.0 31.0 0.00 0.44 0.02 75 998.6
20260504190105 44 250 17.0 39.0 0.00 0.44 0.02 76 998.3
20260504184559 44 256 15.0 37.0 0.00 0.44 0.02 77 998.3
20260504183047 44 310 21.0 45.0 0.00 0.44 0.02 77 998.2
20260504181544 43 60 14.0 36.0 0.00 0.44 0.02 82 997.9
20260504180040 42 250 17.0 42.0 0.00 0.44 0.02 83 998.0
20260504174537 42 3 13.0 45.0 0.00 0.44 0.02 86 997.8
20260504173044 41 267 14.0 36.0 0.00 0.44 0.02 88 996.8
20260504171533 40 300 16.0 38.0 0.00 0.44 0.02 90 997.1
20260504140111 36 249 14.0 38.0 0.01 0.43 0.02 96 992.2
20260504090125 36 289 13.0 23.0 0.04 0.42 0.06 94 978.0
20260504081556 37 267 5.0 18.0 0.02 0.39 0.03 94 976.4